| time (UTC) | temp C | wind direction | speed KPH | gust KPH | rain 1hr cm | rain 24hr cm | rain mn cm | humidity % | barometer mb |
| 20260507154043 | 27 | 203 | 1.6 | 3.2 | 0.00 | 0.00 | 0.00 | 12 | 1015.8 |
| 20260507153523 | 27 | 0 | 1.6 | 3.2 | 0.00 | 0.00 | 0.00 | 12 | 1015.7 |
| 20260507153023 | 27 | 0 | 3.2 | 8.0 | 0.00 | 0.00 | 0.00 | 12 | 1015.8 |
| 20260507152523 | 27 | 90 | 1.6 | 8.0 | 0.00 | 0.00 | 0.00 | 14 | 1015.8 |
| 20260507152024 | 26 | 23 | 4.8 | 9.7 | 0.00 | 0.00 | 0.00 | 13 | 1015.7 |
| 20260507151523 | 26 | 0 | 4.8 | 8.0 | 0.00 | 0.00 | 0.00 | 13 | 1015.7 |
| 20260507151022 | 26 | 68 | 3.2 | 4.8 | 0.00 | 0.00 | 0.00 | 15 | 1015.8 |
| 20260507150523 | 26 | 338 | 3.2 | 6.4 | 0.00 | 0.00 | 0.00 | 16 | 1015.9 |
| 20260507150023 | 26 | 0 | 3.2 | 6.4 | 0.00 | 0.00 | 0.00 | 18 | 1015.9 |
| 20260507145523 | 25 | 0 | 1.6 | 3.2 | 0.00 | 0.00 | 0.00 | 19 | 1015.9 |
| 20260507145023 | 25 | 248 | 1.6 | 3.2 | 0.00 | 0.00 | 0.00 | 21 | 1015.9 |
| 20260507144522 | 24 | 0.0 | 3.2 | 0.00 | 0.00 | 0.00 | 23 | 1015.9 | |
| 20260507144043 | 23 | 248 | 1.6 | 3.2 | 0.00 | 0.00 | 0.00 | 25 | 1015.8 |
| 20260507143523 | 22 | 248 | 1.6 | 4.8 | 0.00 | 0.00 | 0.00 | 26 | 1015.9 |
| 20260507143043 | 22 | 0.0 | 0.0 | 0.00 | 0.00 | 0.00 | 28 | 1015.8 | |
| 20260507142522 | 22 | 0.0 | 0.0 | 0.00 | 0.00 | 0.00 | 29 | 1015.7 | |
| 20260507142022 | 21 | 225 | 1.6 | 3.2 | 0.00 | 0.00 | 0.00 | 29 | 1015.7 |
| 20260507141523 | 21 | 248 | 3.2 | 6.4 | 0.00 | 0.00 | 0.00 | 30 | 1015.7 |
| 20260507141023 | 21 | 248 | 3.2 | 6.4 | 0.00 | 0.00 | 0.00 | 30 | 1015.7 |
| 20260507140523 | 21 | 225 | 1.6 | 4.8 | 0.00 | 0.00 | 0.00 | 30 | 1015.7 |
| 20260507140023 | 20 | 0.0 | 3.2 | 0.00 | 0.00 | 0.00 | 31 | 1015.6 | |
| 20260507135604 | 20 | 0 | 1.6 | 4.8 | 0.00 | 0.00 | 0.00 | 31 | 1015.6 |
| 20260507135024 | 20 | 0 | 1.6 | 6.4 | 0.00 | 0.00 | 0.00 | 32 | 1015.5 |
| 20260507134522 | 19 | 23 | 1.6 | 3.2 | 0.00 | 0.00 | 0.00 | 32 | 1015.4 |
| 20260507134023 | 19 | 0.0 | 3.2 | 0.00 | 0.00 | 0.00 | 32 | 1015.4 | |
| 20260507133526 | 18 | 248 | 1.6 | 4.8 | 0.00 | 0.00 | 0.00 | 33 | 1015.3 |
| 20260507133022 | 18 | 0 | 3.2 | 3.2 | 0.00 | 0.00 | 0.00 | 33 | 1015.3 |
| 20260507132523 | 18 | 0 | 1.6 | 3.2 | 0.00 | 0.00 | 0.00 | 33 | 1015.3 |
| 20260507132022 | 18 | 0.0 | 0.0 | 0.00 | 0.00 | 0.00 | 33 | 1015.2 | |
| 20260507131522 | 17 | 248 | 1.6 | 4.8 | 0.00 | 0.00 | 0.00 | 34 | 1015.2 |
| 20260507131022 | 17 | 0.0 | 3.2 | 0.00 | 0.00 | 0.00 | 34 | 1015.1 | |
| 20260507130543 | 17 | 0.0 | 0.0 | 0.00 | 0.00 | 0.00 | 34 | 1015.1 | |
| 20260507130024 | 17 | 0.0 | 0.0 | 0.00 | 0.00 | 0.00 | 34 | 1015.1 | |
| 20260507125523 | 17 | 0.0 | 0.0 | 0.00 | 0.00 | 0.00 | 34 | 1015.0 | |
| 20260507125024 | 16 | 0.0 | 0.0 | 0.00 | 0.00 | 0.00 | 34 | 1014.9 | |
| 20260507124523 | 17 | 0.0 | 1.6 | 0.00 | 0.00 | 0.00 | 34 | 1014.9 | |
| 20260507124023 | 17 | 0 | 1.6 | 3.2 | 0.00 | 0.00 | 0.00 | 34 | 1014.9 |
| 20260507123523 | 17 | 0 | 1.6 | 4.8 | 0.00 | 0.00 | 0.00 | 34 | 1014.9 |
| 20260507123104 | 17 | 0.0 | 3.2 | 0.00 | 0.00 | 0.00 | 33 | 1014.9 | |
| 20260507122523 | 17 | 0 | 1.6 | 4.8 | 0.00 | 0.00 | 0.00 | 33 | 1014.9 |
| 20260507122023 | 17 | 270 | 1.6 | 6.4 | 0.00 | 0.00 | 0.00 | 33 | 1014.9 |
| 20260507121523 | 16 | 225 | 1.6 | 4.8 | 0.00 | 0.00 | 0.00 | 34 | 1014.8 |
| 20260507121023 | 16 | 0.0 | 1.6 | 0.00 | 0.00 | 0.00 | 34 | 1014.8 | |
| 20260507120523 | 16 | 0.0 | 3.2 | 0.00 | 0.00 | 0.00 | 35 | 1014.8 | |
| 20260507120024 | 16 | 0.0 | 4.8 | 0.00 | 0.00 | 0.00 | 36 | 1014.9 | |
| 20260507115523 | 16 | 248 | 1.6 | 4.8 | 0.00 | 0.00 | 0.00 | 36 | 1014.9 |
| 20260507115043 | 16 | 0.0 | 1.6 | 0.00 | 0.00 | 0.00 | 37 | 1014.9 | |
| 20260507114524 | 16 | 0.0 | 0.0 | 0.00 | 0.00 | 0.00 | 37 | 1015.0 | |
| 20260507114043 | 16 | 0.0 | 0.0 | 0.00 | 0.00 | 0.00 | 37 | 1015.1 | |
| 20260507113544 | 16 | 0.0 | 0.0 | 0.00 | 0.00 | 0.00 | 37 | 1015.0 | |
| 20260507113023 | 16 | 0.0 | 0.0 | 0.00 | 0.00 | 0.00 | 37 | 1015.2 | |
| 20260507112522 | 16 | 0.0 | 0.0 | 0.00 | 0.00 | 0.00 | 36 | 1015.2 | |
| 20260507112023 | 16 | 0.0 | 1.6 | 0.00 | 0.00 | 0.00 | 36 | 1015.2 | |
| 20260507111604 | 16 | 0 | 1.6 | 6.4 | 0.00 | 0.00 | 0.00 | 36 | 1015.2 |
| 20260507111022 | 16 | 0.0 | 0.0 | 0.00 | 0.00 | 0.00 | 36 | 1015.2 | |
| 20260507110523 | 16 | 0.0 | 0.0 | 0.00 | 0.00 | 0.00 | 36 | 1015.1 | |
| 20260507110023 | 16 | 0.0 | 0.0 | 0.00 | 0.00 | 0.00 | 35 | 1015.2 | |
| 20260507105523 | 17 | 0.0 | 0.0 | 0.00 | 0.00 | 0.00 | 35 | 1015.3 | |
| 20260507105024 | 17 | 0.0 | 1.6 | 0.00 | 0.00 | 0.00 | 34 | 1015.3 | |
| 20260507104523 | 17 | 0.0 | 4.8 | 0.00 | 0.00 | 0.00 | 34 | 1015.4 | |
| 20260507104105 | 17 | 248 | 1.6 | 4.8 | 0.00 | 0.00 | 0.00 | 34 | 1015.3 |
| 20260507103543 | 17 | 248 | 3.2 | 8.0 | 0.00 | 0.00 | 0.00 | 34 | 1015.3 |
| 20260507103022 | 17 | 248 | 4.8 | 8.0 | 0.00 | 0.00 | 0.00 | 34 | 1015.4 |
| 20260507102523 | 17 | 248 | 4.8 | 8.0 | 0.00 | 0.00 | 0.00 | 35 | 1015.4 |
| 20260507102022 | 17 | 248 | 3.2 | 6.4 | 0.00 | 0.00 | 0.00 | 35 | 1015.4 |
| 20260507101523 | 17 | 248 | 3.2 | 6.4 | 0.00 | 0.00 | 0.00 | 35 | 1015.4 |
| 20260507101022 | 17 | 248 | 3.2 | 6.4 | 0.00 | 0.00 | 0.00 | 35 | 1015.5 |
| 20260507100522 | 17 | 248 | 3.2 | 4.8 | 0.00 | 0.00 | 0.00 | 36 | 1015.5 |
| 20260507100023 | 17 | 0.0 | 4.8 | 0.00 | 0.00 | 0.00 | 35 | 1015.6 | |
| 20260507095544 | 17 | 270 | 1.6 | 6.4 | 0.00 | 0.00 | 0.00 | 35 | 1015.5 |
| 20260507095023 | 17 | 248 | 1.6 | 6.4 | 0.00 | 0.00 | 0.00 | 35 | 1015.6 |
| 20260507094523 | 16 | 0.0 | 1.6 | 0.00 | 0.00 | 0.00 | 35 | 1015.4 | |
| 20260507093522 | 17 | 0.0 | 3.2 | 0.00 | 0.00 | 0.00 | 35 | 1015.6 | |
| 20260507093024 | 17 | 248 | 1.6 | 4.8 | 0.00 | 0.00 | 0.00 | 35 | 1015.7 |
| 20260507092523 | 17 | 0.0 | 1.6 | 0.00 | 0.00 | 0.00 | 35 | 1015.6 | |
| 20260507092023 | 17 | 0.0 | 1.6 | 0.00 | 0.00 | 0.00 | 35 | 1015.6 | |
| 20260507091523 | 17 | 248 | 3.2 | 4.8 | 0.00 | 0.00 | 0.00 | 35 | 1015.6 |
| 20260507091022 | 17 | 248 | 3.2 | 4.8 | 0.00 | 0.00 | 0.00 | 35 | 1015.6 |
| 20260507090544 | 17 | 248 | 1.6 | 4.8 | 0.00 | 0.00 | 0.00 | 35 | 1015.7 |
| 20260507090023 | 17 | 180 | 1.6 | 3.2 | 0.00 | 0.00 | 0.00 | 36 | 1015.8 |
| 20260507085523 | 17 | 0.0 | 3.2 | 0.00 | 0.00 | 0.00 | 36 | 1015.8 | |
| 20260507085024 | 17 | 0.0 | 1.6 | 0.00 | 0.00 | 0.00 | 36 | 1015.8 | |
| 20260507084523 | 17 | 0.0 | 0.0 | 0.00 | 0.00 | 0.00 | 35 | 1016.0 | |
| 20260507084022 | 17 | 0.0 | 0.0 | 0.00 | 0.00 | 0.00 | 35 | 1016.0 | |
| 20260507083522 | 17 | 0.0 | 0.0 | 0.00 | 0.00 | 0.00 | 34 | 1015.9 | |
| 20260507083023 | 17 | 0.0 | 1.6 | 0.00 | 0.00 | 0.00 | 34 | 1015.9 | |
| 20260507082523 | 17 | 0.0 | 0.0 | 0.00 | 0.00 | 0.00 | 34 | 1016.0 | |
| 20260507082024 | 17 | 0.0 | 0.0 | 0.00 | 0.00 | 0.00 | 34 | 1016.0 | |
| 20260507081524 | 18 | 0.0 | 0.0 | 0.00 | 0.00 | 0.00 | 33 | 1016.0 | |
| 20260507081023 | 18 | 0.0 | 1.6 | 0.00 | 0.00 | 0.00 | 33 | 1016.0 | |
| 20260507080523 | 18 | 0.0 | 0.0 | 0.00 | 0.00 | 0.00 | 33 | 1016.0 | |
| 20260507080023 | 18 | 0.0 | 0.0 | 0.00 | 0.00 | 0.00 | 33 | 1016.0 | |
| 20260507075523 | 18 | 0.0 | 1.6 | 0.00 | 0.00 | 0.00 | 33 | 1016.0 | |
| 20260507075024 | 18 | 0.0 | 1.6 | 0.00 | 0.00 | 0.00 | 32 | 1016.0 | |
| 20260507074522 | 18 | 0.0 | 1.6 | 0.00 | 0.00 | 0.00 | 32 | 1016.0 | |
| 20260507074023 | 18 | 0.0 | 1.6 | 0.00 | 0.00 | 0.00 | 32 | 1016.0 | |
| 20260507073524 | 18 | 0.0 | 1.6 | 0.00 | 0.00 | 0.00 | 33 | 1016.0 | |
| 20260507073023 | 19 | 0.0 | 1.6 | 0.00 | 0.00 | 0.00 | 33 | 1016.0 | |
| 20260507072523 | 19 | 0.0 | 0.0 | 0.00 | 0.00 | 0.00 | 32 | 1015.9 | |
| 20260507072023 | 19 | 0.0 | 0.0 | 0.00 | 0.00 | 0.00 | 31 | 1016.0 | |
| 20260507071523 | 20 | 0.0 | 0.0 | 0.00 | 0.00 | 0.00 | 31 | 1016.0 | |
| 20260507071044 | 20 | 0.0 | 1.6 | 0.00 | 0.00 | 0.00 | 31 | 1016.1 | |
| 20260507070525 | 20 | 0.0 | 1.6 | 0.00 | 0.00 | 0.00 | 31 | 1016.0 | |
| 20260507070023 | 20 | 180 | 1.6 | 3.2 | 0.00 | 0.00 | 0.00 | 31 | 1015.9 |
| 20260507065523 | 20 | 180 | 1.6 | 3.2 | 0.00 | 0.00 | 0.00 | 32 | 1016.0 |
| 20260507065023 | 20 | 180 | 1.6 | 3.2 | 0.00 | 0.00 | 0.00 | 32 | 1016.0 |
| 20260507064523 | 20 | 0.0 | 0.0 | 0.00 | 0.00 | 0.00 | 33 | 1015.9 | |
| 20260507064023 | 20 | 0.0 | 0.0 | 0.00 | 0.00 | 0.00 | 32 | 1015.9 | |
| 20260507063545 | 20 | 0.0 | 1.6 | 0.00 | 0.00 | 0.00 | 32 | 1015.8 | |
| 20260507063023 | 20 | 0.0 | 0.0 | 0.00 | 0.00 | 0.00 | 31 | 1015.8 | |
| 20260507062523 | 20 | 0.0 | 0.0 | 0.00 | 0.00 | 0.00 | 31 | 1015.9 | |
| 20260507062043 | 20 | 0.0 | 0.0 | 0.00 | 0.00 | 0.00 | 31 | 1016.0 | |
| 20260507061543 | 20 | 0.0 | 3.2 | 0.00 | 0.00 | 0.00 | 31 | 1016.0 | |
| 20260507061023 | 20 | 0.0 | 0.0 | 0.00 | 0.00 | 0.00 | 32 | 1015.8 | |
| 20260507060524 | 20 | 0.0 | 1.6 | 0.00 | 0.00 | 0.00 | 31 | 1015.7 | |
| 20260507060023 | 20 | 0.0 | 0.0 | 0.00 | 0.00 | 0.00 | 32 | 1015.7 | |
| 20260507055523 | 20 | 0.0 | 3.2 | 0.00 | 0.00 | 0.00 | 32 | 1015.7 | |
| 20260507055103 | 20 | 0.0 | 0.0 | 0.00 | 0.00 | 0.00 | 32 | 1015.8 | |
| 20260507054603 | 20 | 0.0 | 0.0 | 0.00 | 0.00 | 0.00 | 31 | 1015.8 | |
| 20260507054023 | 20 | 0.0 | 0.0 | 0.00 | 0.00 | 0.00 | 31 | 1015.8 | |
| 20260507053523 | 20 | 0.0 | 0.0 | 0.00 | 0.00 | 0.00 | 32 | 1015.7 | |
| 20260507053023 | 20 | 0.0 | 0.0 | 0.00 | 0.00 | 0.00 | 31 | 1015.8 | |
| 20260507052523 | 20 | 0.0 | 0.0 | 0.00 | 0.00 | 0.00 | 31 | 1015.7 | |
| 20260507052023 | 20 | 0.0 | 0.0 | 0.00 | 0.00 | 0.00 | 31 | 1015.7 | |
| 20260507051544 | 21 | 0.0 | 0.0 | 0.00 | 0.00 | 0.00 | 30 | 1015.8 | |
| 20260507051023 | 21 | 0.0 | 0.0 | 0.00 | 0.00 | 0.00 | 30 | 1015.8 | |
| 20260507050523 | 21 | 0.0 | 0.0 | 0.00 | 0.00 | 0.00 | 30 | 1015.7 | |
| 20260507050024 | 21 | 0.0 | 0.0 | 0.00 | 0.00 | 0.00 | 30 | 1015.7 | |
| 20260507045524 | 21 | 0.0 | 0.0 | 0.00 | 0.00 | 0.00 | 29 | 1015.6 | |
| 20260507045023 | 21 | 0.0 | 0.0 | 0.00 | 0.00 | 0.00 | 28 | 1015.5 | |
| 20260507044523 | 21 | 0.0 | 0.0 | 0.00 | 0.00 | 0.00 | 29 | 1015.5 | |
| 20260507044046 | 21 | 0.0 | 0.0 | 0.00 | 0.00 | 0.00 | 29 | 1015.5 | |
| 20260507043523 | 21 | 0.0 | 0.0 | 0.00 | 0.00 | 0.00 | 29 | 1015.5 | |
| 20260507043023 | 21 | 0.0 | 0.0 | 0.00 | 0.00 | 0.00 | 28 | 1015.4 | |
| 20260507042523 | 21 | 0.0 | 0.0 | 0.00 | 0.00 | 0.00 | 28 | 1015.3 | |
| 20260507042022 | 21 | 0.0 | 0.0 | 0.00 | 0.00 | 0.00 | 27 | 1015.3 | |
| 20260507041524 | 21 | 0.0 | 0.0 | 0.00 | 0.00 | 0.00 | 27 | 1015.2 | |
| 20260507041023 | 22 | 0.0 | 0.0 | 0.00 | 0.00 | 0.00 | 26 | 1015.3 | |
| 20260507040524 | 22 | 0.0 | 0.0 | 0.00 | 0.00 | 0.00 | 25 | 1015.2 | |
| 20260507040023 | 23 | 0.0 | 0.0 | 0.00 | 0.00 | 0.00 | 25 | 1015.3 | |
| 20260507035523 | 23 | 0.0 | 0.0 | 0.00 | 0.00 | 0.00 | 24 | 1015.1 | |
| 20260507035024 | 24 | 0.0 | 0.0 | 0.00 | 0.00 | 0.00 | 24 | 1015.2 | |
| 20260507034524 | 24 | 0.0 | 0.0 | 0.00 | 0.00 | 0.00 | 23 | 1015.2 | |
| 20260507034024 | 24 | 0.0 | 0.0 | 0.00 | 0.00 | 0.00 | 23 | 1015.1 | |
| 20260507033543 | 25 | 158 | 1.6 | 3.2 | 0.00 | 0.00 | 0.00 | 23 | 1015.0 |
| 20260507033024 | 25 | 180 | 1.6 | 4.8 | 0.00 | 0.00 | 0.00 | 23 | 1015.0 |
| 20260507032544 | 25 | 0.0 | 3.2 | 0.00 | 0.00 | 0.00 | 22 | 1014.8 | |
| 20260507032023 | 25 | 180 | 1.6 | 3.2 | 0.00 | 0.00 | 0.00 | 22 | 1014.7 |
| 20260507031523 | 25 | 180 | 3.2 | 6.4 | 0.00 | 0.00 | 0.00 | 22 | 1014.6 |
| 20260507031023 | 25 | 180 | 3.2 | 4.8 | 0.00 | 0.00 | 0.00 | 22 | 1014.6 |
| 20260507030523 | 25 | 180 | 3.2 | 6.4 | 0.00 | 0.00 | 0.00 | 22 | 1014.5 |
| 20260507030024 | 25 | 180 | 3.2 | 6.4 | 0.00 | 0.00 | 0.00 | 22 | 1014.5 |
| 20260507025523 | 25 | 180 | 3.2 | 4.8 | 0.00 | 0.00 | 0.00 | 22 | 1014.4 |
| 20260507025023 | 25 | 180 | 3.2 | 6.4 | 0.00 | 0.00 | 0.00 | 22 | 1014.3 |
| 20260507024543 | 25 | 180 | 4.8 | 8.0 | 0.00 | 0.00 | 0.00 | 22 | 1014.3 |
| 20260507024023 | 26 | 180 | 4.8 | 8.0 | 0.00 | 0.00 | 0.00 | 21 | 1014.2 |
| 20260507023523 | 26 | 180 | 4.8 | 8.0 | 0.00 | 0.00 | 0.00 | 21 | 1014.0 |
| 20260507023023 | 26 | 180 | 4.8 | 9.7 | 0.00 | 0.00 | 0.00 | 21 | 1014.0 |
| 20260507022523 | 26 | 158 | 6.4 | 8.0 | 0.00 | 0.00 | 0.00 | 21 | 1014.0 |
| 20260507022023 | 26 | 158 | 6.4 | 11.3 | 0.00 | 0.00 | 0.00 | 21 | 1013.9 |
| 20260507021523 | 26 | 158 | 6.4 | 12.9 | 0.00 | 0.00 | 0.00 | 21 | 1014.0 |
| 20260507021043 | 26 | 158 | 4.8 | 9.7 | 0.00 | 0.00 | 0.00 | 21 | 1014.0 |
| 20260507020544 | 26 | 135 | 6.4 | 9.7 | 0.00 | 0.00 | 0.00 | 21 | 1013.6 |
| 20260507020023 | 27 | 180 | 8.0 | 14.5 | 0.00 | 0.00 | 0.00 | 20 | 1013.7 |
| 20260507015523 | 27 | 135 | 6.4 | 11.3 | 0.00 | 0.00 | 0.00 | 20 | 1013.8 |
| 20260507015023 | 27 | 158 | 6.4 | 12.9 | 0.00 | 0.00 | 0.00 | 20 | 1013.6 |
| 20260507014523 | 27 | 135 | 6.4 | 11.3 | 0.00 | 0.00 | 0.00 | 20 | 1013.7 |
| 20260507014023 | 27 | 158 | 8.0 | 14.5 | 0.00 | 0.00 | 0.00 | 20 | 1013.6 |
| 20260507013523 | 27 | 158 | 6.4 | 11.3 | 0.00 | 0.00 | 0.00 | 19 | 1013.4 |
| 20260507013023 | 27 | 158 | 4.8 | 14.5 | 0.00 | 0.00 | 0.00 | 19 | 1013.3 |
| 20260507012523 | 27 | 158 | 4.8 | 8.0 | 0.00 | 0.00 | 0.00 | 20 | 1013.4 |
| 20260507012023 | 27 | 180 | 6.4 | 12.9 | 0.00 | 0.00 | 0.00 | 20 | 1013.3 |
| 20260507011523 | 27 | 158 | 6.4 | 12.9 | 0.00 | 0.00 | 0.00 | 20 | 1013.3 |
| 20260507011043 | 27 | 135 | 4.8 | 9.7 | 0.00 | 0.00 | 0.00 | 19 | 1013.4 |
| 20260507010523 | 27 | 135 | 6.4 | 14.5 | 0.00 | 0.00 | 0.00 | 19 | 1013.3 |
| 20260507010043 | 27 | 158 | 8.0 | 14.5 | 0.00 | 0.00 | 0.00 | 19 | 1013.2 |
| 20260507005523 | 27 | 135 | 9.7 | 17.7 | 0.00 | 0.00 | 0.00 | 20 | 1013.3 |
| 20260507005025 | 27 | 225 | 6.4 | 14.5 | 0.00 | 0.00 | 0.00 | 19 | 1013.3 |
| 20260507004524 | 28 | 158 | 4.8 | 8.0 | 0.00 | 0.00 | 0.00 | 19 | 1013.3 |
| 20260507004023 | 28 | 180 | 6.4 | 11.3 | 0.00 | 0.00 | 0.00 | 19 | 1013.3 |
| 20260507003544 | 28 | 158 | 4.8 | 11.3 | 0.00 | 0.00 | 0.00 | 19 | 1013.3 |
| 20260507003025 | 28 | 203 | 3.2 | 6.4 | 0.00 | 0.00 | 0.00 | 20 | 1013.3 |
| 20260507002523 | 28 | 203 | 6.4 | 11.3 | 0.00 | 0.00 | 0.00 | 19 | 1013.3 |
| 20260507002023 | 28 | 158 | 6.4 | 14.5 | 0.00 | 0.00 | 0.00 | 19 | 1013.3 |
| 20260507001524 | 28 | 135 | 4.8 | 9.7 | 0.00 | 0.00 | 0.00 | 19 | 1013.4 |
| 20260507001023 | 28 | 158 | 3.2 | 11.3 | 0.00 | 0.00 | 0.00 | 19 | 1013.2 |
| 20260507000523 | 27 | 338 | 3.2 | 9.7 | 0.00 | 0.00 | 0.00 | 20 | 1013.3 |
| 20260507000024 | 27 | 180 | 6.4 | 11.3 | 0.00 | 0.00 | 0.00 | 19 | 1013.3 |
| 20260506235523 | 27 | 203 | 8.0 | 12.9 | 0.00 | 0.00 | 0.00 | 19 | 1013.3 |
| 20260506235022 | 27 | 225 | 3.2 | 12.9 | 0.00 | 0.00 | 0.00 | 19 | 1013.3 |
| 20260506234525 | 27 | 203 | 8.0 | 12.9 | 0.00 | 0.00 | 0.00 | 19 | 1013.3 |
| 20260506234043 | 28 | 203 | 9.7 | 17.7 | 0.00 | 0.00 | 0.00 | 19 | 1013.4 |
| 20260506233523 | 28 | 158 | 4.8 | 11.3 | 0.00 | 0.00 | 0.00 | 19 | 1013.4 |
| 20260506233023 | 28 | 135 | 4.8 | 11.3 | 0.00 | 0.00 | 0.00 | 19 | 1013.5 |
| 20260506232523 | 28 | 68 | 1.6 | 6.4 | 0.00 | 0.00 | 0.00 | 18 | 1013.5 |
| 20260506232023 | 28 | 135 | 3.2 | 6.4 | 0.00 | 0.00 | 0.00 | 19 | 1013.7 |
| 20260506231524 | 28 | 135 | 8.0 | 14.5 | 0.00 | 0.00 | 0.00 | 19 | 1013.8 |
| 20260506231023 | 28 | 158 | 8.0 | 12.9 | 0.00 | 0.00 | 0.00 | 19 | 1013.8 |
| 20260506230522 | 27 | 203 | 8.0 | 17.7 | 0.00 | 0.00 | 0.00 | 19 | 1013.8 |
| 20260506230024 | 28 | 203 | 6.4 | 12.9 | 0.00 | 0.00 | 0.00 | 19 | 1014.0 |
| 20260506225523 | 28 | 158 | 3.2 | 8.0 | 0.00 | 0.00 | 0.00 | 18 | 1014.0 |
| 20260506225024 | 28 | 68 | 3.2 | 9.7 | 0.00 | 0.00 | 0.00 | 18 | 1014.0 |
| 20260506224523 | 27 | 135 | 3.2 | 6.4 | 0.00 | 0.00 | 0.00 | 19 | 1014.0 |
| 20260506224023 | 27 | 158 | 6.4 | 11.3 | 0.00 | 0.00 | 0.00 | 19 | 1014.1 |
| 20260506223523 | 27 | 203 | 6.4 | 14.5 | 0.00 | 0.00 | 0.00 | 20 | 1014.2 |
| 20260506223043 | 27 | 180 | 6.4 | 16.1 | 0.00 | 0.00 | 0.00 | 20 | 1014.3 |
| 20260506222523 | 27 | 180 | 4.8 | 16.1 | 0.00 | 0.00 | 0.00 | 20 | 1014.3 |
| 20260506222043 | 27 | 203 | 9.7 | 12.9 | 0.00 | 0.00 | 0.00 | 20 | 1014.4 |
| 20260506221523 | 27 | 158 | 8.0 | 14.5 | 0.00 | 0.00 | 0.00 | 20 | 1014.5 |
| 20260506221023 | 27 | 158 | 9.7 | 17.7 | 0.00 | 0.00 | 0.00 | 20 | 1014.5 |
| 20260506220524 | 27 | 203 | 9.7 | 17.7 | 0.00 | 0.00 | 0.00 | 20 | 1014.5 |
| 20260506220023 | 27 | 158 | 6.4 | 16.1 | 0.00 | 0.00 | 0.00 | 20 | 1014.5 |
| 20260506215523 | 27 | 158 | 6.4 | 9.7 | 0.00 | 0.00 | 0.00 | 19 | 1014.6 |
| 20260506215043 | 27 | 68 | 3.2 | 8.0 | 0.00 | 0.00 | 0.00 | 20 | 1014.7 |
| 20260506214546 | 27 | 180 | 4.8 | 8.0 | 0.00 | 0.00 | 0.00 | 20 | 1014.8 |
| 20260506214023 | 27 | 158 | 4.8 | 11.3 | 0.00 | 0.00 | 0.00 | 20 | 1014.9 |
| 20260506213525 | 27 | 180 | 6.4 | 12.9 | 0.00 | 0.00 | 0.00 | 20 | 1015.0 |
| 20260506213043 | 27 | 158 | 6.4 | 14.5 | 0.00 | 0.00 | 0.00 | 20 | 1015.2 |
| 20260506212523 | 27 | 158 | 4.8 | 9.7 | 0.00 | 0.00 | 0.00 | 19 | 1015.2 |
| 20260506212044 | 28 | 135 | 6.4 | 14.5 | 0.00 | 0.00 | 0.00 | 20 | 1015.3 |
| 20260506211524 | 27 | 135 | 8.0 | 17.7 | 0.00 | 0.00 | 0.00 | 21 | 1015.2 |
| 20260506211023 | 27 | 180 | 4.8 | 11.3 | 0.00 | 0.00 | 0.00 | 20 | 1015.4 |
| 20260506210523 | 27 | 135 | 4.8 | 12.9 | 0.00 | 0.00 | 0.00 | 20 | 1015.6 |
| 20260506210023 | 26 | 338 | 3.2 | 11.3 | 0.00 | 0.00 | 0.00 | 21 | 1015.5 |
| 20260506205523 | 26 | 68 | 4.8 | 12.9 | 0.00 | 0.00 | 0.00 | 21 | 1015.6 |
| 20260506205023 | 26 | 135 | 8.0 | 14.5 | 0.00 | 0.00 | 0.00 | 20 | 1015.8 |
| 20260506204523 | 27 | 180 | 6.4 | 12.9 | 0.00 | 0.00 | 0.00 | 20 | 1015.9 |
| 20260506204024 | 27 | 135 | 4.8 | 14.5 | 0.00 | 0.00 | 0.00 | 20 | 1016.0 |
| 20260506203543 | 27 | 135 | 3.2 | 14.5 | 0.00 | 0.00 | 0.00 | 20 | 1016.1 |
| 20260506203023 | 26 | 135 | 4.8 | 12.9 | 0.00 | 0.00 | 0.00 | 22 | 1016.1 |
| 20260506202543 | 26 | 203 | 8.0 | 14.5 | 0.00 | 0.00 | 0.00 | 21 | 1016.2 |
| 20260506202023 | 26 | 135 | 4.8 | 16.1 | 0.00 | 0.00 | 0.00 | 21 | 1016.2 |
| 20260506201523 | 26 | 135 | 9.7 | 19.3 | 0.00 | 0.00 | 0.00 | 21 | 1016.3 |
| 20260506201043 | 26 | 158 | 6.4 | 11.3 | 0.00 | 0.00 | 0.00 | 22 | 1016.3 |
| 20260506200545 | 26 | 135 | 4.8 | 11.3 | 0.00 | 0.00 | 0.00 | 21 | 1016.5 |
| 20260506200023 | 26 | 135 | 3.2 | 9.7 | 0.00 | 0.00 | 0.00 | 22 | 1016.5 |
| 20260506195522 | 25 | 203 | 6.4 | 12.9 | 0.00 | 0.00 | 0.00 | 22 | 1016.5 |
| 20260506195044 | 25 | 180 | 8.0 | 14.5 | 0.00 | 0.00 | 0.00 | 22 | 1016.6 |
| 20260506194523 | 26 | 158 | 4.8 | 14.5 | 0.00 | 0.00 | 0.00 | 22 | 1016.7 |
| 20260506194024 | 26 | 135 | 8.0 | 14.5 | 0.00 | 0.00 | 0.00 | 22 | 1016.8 |
| 20260506193524 | 26 | 180 | 6.4 | 14.5 | 0.00 | 0.00 | 0.00 | 22 | 1016.6 |
| 20260506193023 | 26 | 158 | 6.4 | 16.1 | 0.00 | 0.00 | 0.00 | 23 | 1016.7 |
| 20260506192523 | 25 | 158 | 4.8 | 11.3 | 0.00 | 0.00 | 0.00 | 23 | 1016.6 |
| 20260506192023 | 25 | 135 | 6.4 | 14.5 | 0.00 | 0.00 | 0.00 | 23 | 1016.7 |
| 20260506191523 | 25 | 158 | 9.7 | 17.7 | 0.00 | 0.00 | 0.00 | 23 | 1016.8 |
| 20260506191023 | 25 | 158 | 6.4 | 17.7 | 0.00 | 0.00 | 0.00 | 23 | 1016.8 |
| 20260506190523 | 25 | 135 | 9.7 | 17.7 | 0.00 | 0.00 | 0.00 | 23 | 1017.1 |
| 20260506190023 | 26 | 135 | 4.8 | 12.9 | 0.00 | 0.00 | 0.00 | 22 | 1017.2 |
| 20260506185522 | 25 | 135 | 4.8 | 14.5 | 0.00 | 0.00 | 0.00 | 23 | 1017.1 |
| 20260506185023 | 25 | 158 | 6.4 | 16.1 | 0.00 | 0.00 | 0.00 | 24 | 1017.2 |
| 20260506184545 | 25 | 45 | 3.2 | 11.3 | 0.00 | 0.00 | 0.00 | 24 | 1017.3 |
| 20260506184045 | 24 | 338 | 3.2 | 8.0 | 0.00 | 0.00 | 0.00 | 25 | 1017.2 |
| 20260506183524 | 24 | 158 | 6.4 | 11.3 | 0.00 | 0.00 | 0.00 | 25 | 1017.4 |
| 20260506183023 | 24 | 180 | 6.4 | 14.5 | 0.00 | 0.00 | 0.00 | 25 | 1017.4 |
| 20260506182525 | 24 | 180 | 9.7 | 16.1 | 0.00 | 0.00 | 0.00 | 25 | 1017.5 |
| 20260506182023 | 24 | 203 | 4.8 | 9.7 | 0.00 | 0.00 | 0.00 | 26 | 1017.6 |
| 20260506181543 | 24 | 180 | 4.8 | 11.3 | 0.00 | 0.00 | 0.00 | 26 | 1017.7 |
| 20260506181023 | 23 | 135 | 4.8 | 16.1 | 0.00 | 0.00 | 0.00 | 27 | 1017.7 |
| 20260506180523 | 23 | 203 | 8.0 | 14.5 | 0.00 | 0.00 | 0.00 | 26 | 1017.7 |
| 20260506180024 | 23 | 180 | 4.8 | 12.9 | 0.00 | 0.00 | 0.00 | 27 | 1017.7 |
| 20260506175523 | 23 | 135 | 6.4 | 11.3 | 0.00 | 0.00 | 0.00 | 28 | 1017.8 |
| 20260506175023 | 23 | 158 | 3.2 | 11.3 | 0.00 | 0.00 | 0.00 | 28 | 1017.8 |
| 20260506174522 | 23 | 135 | 6.4 | 12.9 | 0.00 | 0.00 | 0.00 | 28 | 1017.9 |
| 20260506174023 | 23 | 135 | 6.4 | 11.3 | 0.00 | 0.00 | 0.00 | 28 | 1017.8 |
| 20260506173523 | 22 | 158 | 3.2 | 8.0 | 0.00 | 0.00 | 0.00 | 29 | 1017.9 |
| 20260506173023 | 22 | 203 | 8.0 | 14.5 | 0.00 | 0.00 | 0.00 | 29 | 1017.9 |
| 20260506172525 | 22 | 158 | 4.8 | 11.3 | 0.00 | 0.00 | 0.00 | 29 | 1017.9 |
| 20260506172023 | 22 | 203 | 4.8 | 14.5 | 0.00 | 0.00 | 0.00 | 30 | 1017.9 |
| 20260506171524 | 22 | 158 | 6.4 | 11.3 | 0.00 | 0.00 | 0.00 | 29 | 1017.8 |
| 20260506171023 | 22 | 180 | 6.4 | 14.5 | 0.00 | 0.00 | 0.00 | 30 | 1017.9 |
| 20260506170544 | 22 | 203 | 4.8 | 11.3 | 0.00 | 0.00 | 0.00 | 30 | 1017.9 |
| 20260506170024 | 22 | 180 | 3.2 | 9.7 | 0.00 | 0.00 | 0.00 | 31 | 1017.9 |
| 20260506165523 | 22 | 158 | 4.8 | 9.7 | 0.00 | 0.00 | 0.00 | 31 | 1017.8 |
| 20260506165024 | 22 | 158 | 8.0 | 16.1 | 0.00 | 0.00 | 0.00 | 30 | 1017.8 |
| 20260506164523 | 22 | 158 | 3.2 | 8.0 | 0.00 | 0.00 | 0.00 | 31 | 1017.8 |
| 20260506164023 | 21 | 225 | 3.2 | 8.0 | 0.00 | 0.00 | 0.00 | 32 | 1017.7 |
| 20260506163543 | 21 | 135 | 4.8 | 9.7 | 0.00 | 0.00 | 0.00 | 31 | 1017.8 |
| 20260506163043 | 21 | 135 | 3.2 | 8.0 | 0.00 | 0.00 | 0.00 | 32 | 1017.7 |
| 20260506162524 | 21 | 180 | 6.4 | 11.3 | 0.00 | 0.00 | 0.00 | 32 | 1017.7 |
| 20260506162024 | 21 | 68 | 1.6 | 11.3 | 0.00 | 0.00 | 0.00 | 32 | 1017.6 |
| 20260506161524 | 21 | 203 | 4.8 | 9.7 | 0.00 | 0.00 | 0.00 | 32 | 1017.5 |
| 20260506161023 | 21 | 135 | 4.8 | 8.0 | 0.00 | 0.00 | 0.00 | 33 | 1017.5 |
| 20260506160523 | 20 | 158 | 4.8 | 8.0 | 0.00 | 0.00 | 0.00 | 33 | 1017.5 |
| 20260506160023 | 20 | 180 | 3.2 | 9.7 | 0.00 | 0.00 | 0.00 | 33 | 1017.5 |
| 20260506155543 | 20 | 158 | 4.8 | 8.0 | 0.00 | 0.00 | 0.00 | 34 | 1017.5 |
| 20260506155103 | 20 | 158 | 4.8 | 8.0 | 0.00 | 0.00 | 0.00 | 33 | 1017.5 |
| 20260506154543 | 21 | 180 | 3.2 | 6.4 | 0.00 | 0.00 | 0.00 | 33 | 1017.6 |